This is the latest recevied weather packets stored in our database for station/object K5FEP. If no packets are shown the sender has not sent any weather packets the latest 10 day(s).
| Time | Temp. | Humidity | Pressure | Rain* | Wind** | Luminosity | Snow |
|---|---|---|---|---|---|---|---|
| 1788218937 | 30.56° C | 58% | 1017.1 hPa | 0 mm | - | 9 W/m² | - |
| 1788218634 | 30.56° C | 58% | 1016.9 hPa | 0 mm | - | 11 W/m² | - |
| 1788218329 | 30.56° C | 57% | 1017 hPa | 0 mm | - | 14 W/m² | - |
| 1788218026 | 30.56° C | 57% | 1017 hPa | 0 mm | - | 17 W/m² | - |
| 1788217721 | 31.11° C | 56% | 1017 hPa | 0 mm | - | 21 W/m² | - |
| 1788217416 | 31.11° C | 56% | 1017.1 hPa | 0 mm | - | 27 W/m² | - |
| 1788217116 | 31.11° C | 56% | 1016.9 hPa | 0 mm | - | 37 W/m² | - |
| 1788216810 | 31.67° C | 55% | 1017 hPa | 0 mm | - | 39 W/m² | - |
| 1788216506 | 31.67° C | 54% | 1017 hPa | 0 mm | - | 39 W/m² | - |
| 1788216201 | 32.22° C | 52% | 1016.8 hPa | 0 mm | - | 48 W/m² | - |
| 1788215896 | 32.78° C | 52% | 1016.8 hPa | 0 mm | - | 50 W/m² | - |
| 1788215592 | 33.33° C | 50% | 1017.1 hPa | 0 mm | - | 57 W/m² | - |
| 1788215289 | 33.89° C | 50% | 1016.9 hPa | 0 mm | - | 67 W/m² | - |
| 1788214984 | 33.89° C | 48% | 1016.8 hPa | 0 mm | - | 103 W/m² | - |
| 1788214679 | 33.89° C | 48% | 1016.9 hPa | 0 mm | - | 127 W/m² | - |
| 1788214375 | 33.89° C | 48% | 1017 hPa | 0 mm | - | 138 W/m² | - |
| 1788214074 | 34.44° C | 46% | 1016.9 hPa | 0 mm | - | 92 W/m² | - |
| 1788213770 | 34.44° C | 45% | 1016.9 hPa | 0 mm | - | 176 W/m² | - |
| 1788213464 | 35° C | 41% | 1017.1 hPa | 0 mm | - | 142 W/m² | - |
| 1788213161 | 35° C | 39% | 1016.8 hPa | 0 mm | - | 233 W/m² | - |
| 1788212857 | 35° C | 42% | 1016.9 hPa | 0 mm | - | 260 W/m² | - |
| 1788212554 | 35° C | 40% | 1017.2 hPa | 0 mm | - | 269 W/m² | - |
| 1788212256 | 34.44° C | 42% | 1017 hPa | 0 mm | - | 302 W/m² | - |
| 1788211946 | 33.89° C | 43% | 1017.1 hPa | 0 mm | - | 176 W/m² | - |
| 1788211646 | 33.89° C | 44% | 1017 hPa | 0 mm | - | 207 W/m² | - |
* Rain latest hour (hover to see other rain measurements)
** Current wind speed in m/s (hover to see current wind gust speed)